Zurück zum Katalog

STARLINK-4560

AktivKommunikationSSO
NORAD 53691·PAYLOAD·🇺🇸 United States

Gestartet Aug 31, 2022 von Vandenberg Space Force Base

Loading…

Nächste Überflüge (nächste 24 Stunden)

TLE

AktuellSource: CelesTrak SupGP

Epoche: Sep 14, 2026, 20:47 UTC

1 53691C 22105AV  26257.86645833 -.00034265  00000+0 -10638-2 0  2577
2 53691  97.2845 134.7038 0001764  90.9422 210.3777 15.33452575    19

Verfolge STARLINK-4560 in Echtzeit mit AllMySat

Download on the App Store